Year,Month,Day,Hour,Minute,Value (Times are PST for windgust in km/hr)
2011,11,21,00,00,9.60
2011,11,21,00,01,11.30
2011,11,21,00,02,9.60
2011,11,21,00,03,8.10
2011,11,21,00,04,9.60
2011,11,21,00,05,9.60
2011,11,21,00,06,8.10
2011,11,21,00,07,8.10
2011,11,21,00,08,12.90
2011,11,21,00,09,9.60
2011,11,21,00,10,8.10
2011,11,21,00,11,6.40
2011,11,21,00,12,8.10
2011,11,21,00,13,6.40
2011,11,21,00,14,6.40
2011,11,21,00,15,9.60
2011,11,21,00,16,11.30
2011,11,21,00,17,9.60
2011,11,21,00,18,8.10
2011,11,21,00,19,8.10
2011,11,21,00,20,9.60
2011,11,21,00,21,6.40
2011,11,21,00,22,8.10
2011,11,21,00,23,9.60
2011,11,21,00,24,8.10
2011,11,21,00,25,8.10
2011,11,21,00,26,9.60
2011,11,21,00,27,8.10
2011,11,21,00,28,11.30
2011,11,21,00,29,9.60
2011,11,21,00,30,9.60
2011,11,21,00,31,9.60
2011,11,21,00,32,8.10
2011,11,21,00,33,8.10
2011,11,21,00,34,9.60
2011,11,21,00,35,11.30
2011,11,21,00,36,12.90
2011,11,21,00,37,11.30
2011,11,21,00,38,14.50
2011,11,21,00,39,11.30
2011,11,21,00,40,6.40
2011,11,21,00,41,8.10
2011,11,21,00,42,6.40
2011,11,21,00,43,4.80
2011,11,21,00,44,8.10
2011,11,21,00,45,8.10
2011,11,21,00,46,3.20
2011,11,21,00,47,4.80
2011,11,21,00,48,3.20
2011,11,21,00,49,1.60
2011,11,21,00,50,3.20
2011,11,21,00,51,3.20
2011,11,21,00,52,3.20
2011,11,21,00,53,4.80
2011,11,21,00,54,6.40
2011,11,21,00,55,6.40
2011,11,21,00,56,6.40
2011,11,21,00,57,6.40
2011,11,21,00,58,9.60
2011,11,21,00,59,9.60
2011,11,21,01,00,11.30
2011,11,21,01,01,6.40
2011,11,21,01,02,8.10
2011,11,21,01,03,3.20
2011,11,21,01,04,4.80
2011,11,21,01,05,8.10
2011,11,21,01,06,11.30
2011,11,21,01,07,9.60
2011,11,21,01,08,6.40
2011,11,21,01,09,3.20
2011,11,21,01,10,4.80
2011,11,21,01,11,4.80
2011,11,21,01,12,4.80
2011,11,21,01,13,4.80
2011,11,21,01,14,4.80
2011,11,21,01,15,1.60
2011,11,21,01,17,3.20
2011,11,21,01,18,1.60
2011,11,21,01,20,1.60
2011,11,21,01,21,1.60
2011,11,21,01,22,3.20
2011,11,21,01,23,1.60
2011,11,21,01,24,3.20
2011,11,21,01,26,1.60
2011,11,21,01,27,3.20
2011,11,21,01,28,3.20
2011,11,21,01,29,3.20
2011,11,21,01,30,3.20
2011,11,21,01,31,3.20
2011,11,21,01,32,1.60
2011,11,21,01,35,1.60
2011,11,21,01,37,1.60
2011,11,21,01,38,1.60
2011,11,21,01,39,1.60
2011,11,21,01,40,1.60
2011,11,21,01,41,3.20
2011,11,21,01,42,3.20
2011,11,21,01,43,4.80
2011,11,21,01,44,3.20
2011,11,21,01,45,1.60
2011,11,21,01,46,1.60
2011,11,21,01,47,3.20
2011,11,21,01,48,4.80
2011,11,21,01,49,4.80
2011,11,21,01,50,3.20
2011,11,21,01,51,1.60
2011,11,21,01,52,3.20
2011,11,21,01,53,3.20
2011,11,21,01,54,4.80
2011,11,21,01,55,3.20
2011,11,21,01,56,3.20
2011,11,21,01,57,4.80
2011,11,21,01,58,4.80
2011,11,21,01,59,4.80
2011,11,21,02,00,3.20
2011,11,21,02,01,4.80
2011,11,21,02,02,4.80
2011,11,21,02,03,4.80
2011,11,21,02,04,3.20
2011,11,21,02,05,3.20
2011,11,21,02,06,3.20
2011,11,21,02,07,6.40
2011,11,21,02,08,3.20
2011,11,21,02,09,1.60
2011,11,21,02,10,3.20
2011,11,21,02,11,4.80
2011,11,21,02,12,1.60
2011,11,21,02,13,3.20
2011,11,21,02,14,3.20
2011,11,21,02,15,4.80
2011,11,21,02,16,3.20
2011,11,21,02,17,1.60
2011,11,21,02,18,1.60
2011,11,21,02,21,3.20
2011,11,21,02,22,1.60
2011,11,21,02,23,3.20
2011,11,21,02,24,1.60
2011,11,21,02,25,1.60
2011,11,21,02,26,4.80
2011,11,21,02,27,3.20
2011,11,21,02,33,1.60
2011,11,21,02,34,1.60
2011,11,21,02,37,1.60
2011,11,21,02,39,1.60
2011,11,21,02,40,3.20
2011,11,21,02,41,1.60
2011,11,21,02,42,3.20
2011,11,21,02,43,3.20
2011,11,21,02,44,4.80
2011,11,21,02,45,3.20
2011,11,21,02,46,4.80
2011,11,21,02,47,4.80
2011,11,21,02,48,4.80
2011,11,21,02,49,6.40
2011,11,21,02,50,3.20
2011,11,21,02,51,4.80
2011,11,21,02,52,6.40
2011,11,21,02,53,3.20
2011,11,21,02,54,4.80
2011,11,21,02,55,3.20
2011,11,21,02,56,3.20
2011,11,21,02,57,4.80
2011,11,21,02,58,4.80
2011,11,21,02,59,4.80
2011,11,21,03,01,3.20
2011,11,21,03,02,4.80
2011,11,21,03,03,3.20
2011,11,21,03,04,1.60
2011,11,21,03,05,3.20
2011,11,21,03,06,6.40
2011,11,21,03,07,3.20
2011,11,21,03,08,3.20
2011,11,21,03,09,3.20
2011,11,21,03,10,8.10
2011,11,21,03,11,8.10
2011,11,21,03,12,6.40
2011,11,21,03,13,4.80
2011,11,21,03,14,1.60
2011,11,21,03,15,4.80
2011,11,21,03,16,3.20
2011,11,21,03,17,3.20
2011,11,21,03,20,1.60
2011,11,21,03,21,3.20
2011,11,21,03,22,4.80
2011,11,21,03,23,3.20
2011,11,21,03,24,1.60
2011,11,21,03,26,3.20
2011,11,21,03,27,1.60
2011,11,21,03,29,1.60
2011,11,21,03,32,1.60
2011,11,21,03,36,1.60
2011,11,21,03,37,1.60
2011,11,21,03,38,3.20
2011,11,21,03,39,4.80
2011,11,21,03,40,6.40
2011,11,21,03,41,4.80
2011,11,21,03,42,6.40
2011,11,21,03,43,6.40
2011,11,21,03,44,3.20
2011,11,21,03,46,1.60
2011,11,21,03,47,3.20
2011,11,21,03,48,3.20
2011,11,21,03,49,1.60
2011,11,21,03,50,1.60
2011,11,21,03,53,3.20
2011,11,21,03,54,4.80
2011,11,21,03,55,1.60
2011,11,21,03,56,4.80
2011,11,21,03,57,3.20
2011,11,21,03,59,3.20
2011,11,21,04,00,3.20
2011,11,21,04,01,3.20
2011,11,21,04,02,1.60
2011,11,21,04,03,3.20
2011,11,21,04,04,1.60
2011,11,21,04,05,1.60
2011,11,21,04,06,1.60
2011,11,21,04,07,1.60
2011,11,21,04,15,3.20
2011,11,21,04,16,3.20
2011,11,21,04,17,3.20
2011,11,21,04,18,1.60
2011,11,21,04,19,6.40
2011,11,21,04,20,4.80
2011,11,21,04,21,6.40
2011,11,21,04,22,3.20
2011,11,21,04,24,1.60
2011,11,21,04,26,4.80
2011,11,21,04,27,4.80
2011,11,21,04,28,6.40
2011,11,21,04,29,4.80
2011,11,21,04,30,4.80
2011,11,21,04,31,4.80
2011,11,21,04,32,8.10
2011,11,21,04,33,9.60
2011,11,21,04,34,17.70
2011,11,21,04,35,8.10
2011,11,21,04,36,4.80
2011,11,21,04,37,4.80
2011,11,21,04,38,6.40
2011,11,21,04,39,9.60
2011,11,21,04,40,3.20
2011,11,21,04,41,4.80
2011,11,21,04,42,8.10
2011,11,21,04,43,6.40
2011,11,21,04,44,6.40
2011,11,21,04,45,4.80
2011,11,21,04,46,3.20
2011,11,21,04,47,4.80
2011,11,21,04,48,14.50
2011,11,21,04,49,6.40
2011,11,21,04,50,20.90
2011,11,21,04,51,3.20
2011,11,21,04,52,11.30
2011,11,21,04,53,4.80
2011,11,21,04,54,9.60
2011,11,21,04,55,20.90
2011,11,21,04,56,20.90
2011,11,21,04,57,8.10
2011,11,21,04,58,6.40
2011,11,21,04,59,17.70
2011,11,21,05,00,20.90
2011,11,21,05,01,6.40
2011,11,21,05,02,9.60
2011,11,21,05,03,6.40
2011,11,21,05,04,11.30
2011,11,21,05,05,17.70
2011,11,21,05,06,17.70
2011,11,21,05,07,19.30
2011,11,21,05,08,14.50
2011,11,21,05,09,9.60
2011,11,21,05,10,22.50
2011,11,21,05,11,16.10
2011,11,21,05,12,17.70
2011,11,21,05,13,9.60
2011,11,21,05,14,24.20
2011,11,21,05,15,19.30
2011,11,21,05,16,9.60
2011,11,21,05,17,22.50
2011,11,21,05,18,11.30
2011,11,21,05,19,9.60
2011,11,21,05,20,16.10
2011,11,21,05,21,14.50
2011,11,21,05,22,14.50
2011,11,21,05,23,19.30
2011,11,21,05,24,16.10
2011,11,21,05,25,16.10
2011,11,21,05,26,29.00
2011,11,21,05,27,29.00
2011,11,21,05,28,24.20
2011,11,21,05,29,27.40
2011,11,21,05,30,16.10
2011,11,21,05,31,22.50
2011,11,21,05,32,20.90
2011,11,21,05,33,25.70
2011,11,21,05,34,22.50
2011,11,21,05,35,19.30
2011,11,21,05,36,24.20
2011,11,21,05,37,14.50
2011,11,21,05,38,29.00
2011,11,21,05,39,29.00
2011,11,21,05,40,27.40
2011,11,21,05,41,14.50
2011,11,21,05,42,12.90
2011,11,21,05,43,8.10
2011,11,21,05,44,11.30
2011,11,21,05,45,20.90
2011,11,21,05,46,11.30
2011,11,21,05,47,20.90
2011,11,21,05,48,17.70
2011,11,21,05,49,9.60
2011,11,21,05,50,25.70
2011,11,21,05,51,25.70
2011,11,21,05,52,22.50
2011,11,21,05,53,14.50
2011,11,21,05,54,19.30
2011,11,21,05,55,24.20
2011,11,21,05,56,8.10
2011,11,21,05,57,30.60
2011,11,21,05,58,27.40
2011,11,21,05,59,24.20
2011,11,21,06,00,19.30
2011,11,21,06,01,17.70
2011,11,21,06,02,16.10
2011,11,21,06,03,12.90
2011,11,21,06,04,11.30
2011,11,21,06,05,17.70
2011,11,21,06,06,19.30
2011,11,21,06,07,11.30
2011,11,21,06,08,8.10
2011,11,21,06,09,17.70
2011,11,21,06,10,11.30
2011,11,21,06,11,16.10
2011,11,21,06,12,17.70
2011,11,21,06,13,17.70
2011,11,21,06,14,22.50
2011,11,21,06,15,17.70
2011,11,21,06,16,16.10
2011,11,21,06,17,14.50
2011,11,21,06,18,17.70
2011,11,21,06,19,12.90
2011,11,21,06,20,19.30
2011,11,21,06,21,14.50
2011,11,21,06,22,11.30
2011,11,21,06,23,9.60
2011,11,21,06,24,9.60
2011,11,21,06,25,6.40
2011,11,21,06,26,11.30
2011,11,21,06,27,17.70
2011,11,21,06,28,19.30
2011,11,21,06,29,8.10
2011,11,21,06,30,20.90
2011,11,21,06,31,17.70
2011,11,21,06,32,14.50
2011,11,21,06,33,16.10
2011,11,21,06,34,25.70
2011,11,21,06,35,16.10
2011,11,21,06,36,6.40
2011,11,21,06,37,6.40
2011,11,21,06,38,6.40
2011,11,21,06,39,8.10
2011,11,21,06,40,4.80
2011,11,21,06,41,3.20
2011,11,21,06,42,14.50
2011,11,21,06,43,8.10
2011,11,21,06,44,6.40
2011,11,21,06,45,3.20
2011,11,21,06,46,4.80
2011,11,21,06,47,17.70
2011,11,21,06,48,9.60
2011,11,21,06,49,8.10
2011,11,21,06,50,8.10
2011,11,21,06,51,6.40
2011,11,21,06,52,4.80
2011,11,21,06,53,8.10
2011,11,21,06,54,3.20
2011,11,21,06,55,1.60
2011,11,21,06,56,9.60
2011,11,21,06,57,6.40
2011,11,21,06,58,9.60
2011,11,21,06,59,11.30
2011,11,21,07,00,4.80
2011,11,21,07,01,8.10
2011,11,21,07,02,11.30
2011,11,21,07,03,8.10
2011,11,21,07,04,8.10
2011,11,21,07,05,3.20
2011,11,21,07,06,8.10
2011,11,21,07,07,8.10
2011,11,21,07,08,6.40
2011,11,21,07,09,6.40
2011,11,21,07,10,3.20
2011,11,21,07,11,1.60
2011,11,21,07,12,3.20
2011,11,21,07,13,3.20
2011,11,21,07,14,4.80
2011,11,21,07,15,4.80
2011,11,21,07,16,9.60
2011,11,21,07,17,8.10
2011,11,21,07,18,4.80
2011,11,21,07,19,4.80
2011,11,21,07,20,6.40
2011,11,21,07,21,6.40
2011,11,21,07,22,8.10
2011,11,21,07,23,14.50
2011,11,21,07,24,6.40
2011,11,21,07,25,6.40
2011,11,21,07,26,9.60
2011,11,21,07,27,4.80
2011,11,21,07,28,4.80
2011,11,21,07,29,4.80
2011,11,21,07,30,9.60
2011,11,21,07,31,3.20
2011,11,21,07,33,4.80
2011,11,21,07,34,3.20
2011,11,21,07,35,1.60
2011,11,21,07,36,3.20
2011,11,21,07,37,4.80
2011,11,21,07,38,4.80
2011,11,21,07,39,4.80
2011,11,21,07,40,3.20
2011,11,21,07,41,4.80
2011,11,21,07,42,6.40
2011,11,21,07,43,3.20
2011,11,21,07,44,1.60
2011,11,21,07,45,8.10
2011,11,21,07,46,8.10
2011,11,21,07,47,3.20
2011,11,21,07,48,6.40
2011,11,21,07,49,1.60
2011,11,21,07,50,3.20
2011,11,21,07,51,3.20
2011,11,21,07,52,6.40
2011,11,21,07,53,4.80
2011,11,21,07,54,3.20
2011,11,21,07,55,4.80
2011,11,21,07,56,4.80
2011,11,21,07,57,1.60
2011,11,21,08,15,3.20
2011,11,21,08,16,3.20
2011,11,21,08,17,1.60
2011,11,21,08,18,1.60
2011,11,21,08,28,1.60
2011,11,21,08,29,1.60
2011,11,21,08,44,1.60
2011,11,21,08,46,1.60
2011,11,21,08,47,1.60
2011,11,21,08,48,1.60
2011,11,21,08,49,1.60
2011,11,21,08,51,1.60
2011,11,21,08,52,1.60
2011,11,21,08,53,1.60
2011,11,21,08,54,4.80
2011,11,21,08,55,3.20
2011,11,21,08,56,3.20
2011,11,21,08,57,3.20
2011,11,21,08,58,3.20
2011,11,21,08,59,3.20
2011,11,21,09,00,4.80
2011,11,21,09,01,4.80
2011,11,21,09,02,6.40
2011,11,21,09,03,4.80
2011,11,21,09,04,4.80
2011,11,21,09,05,4.80
2011,11,21,09,06,4.80
2011,11,21,09,07,3.20
2011,11,21,09,08,4.80
2011,11,21,09,09,3.20
2011,11,21,09,10,1.60
2011,11,21,09,11,1.60
2011,11,21,09,13,1.60
2011,11,21,09,15,1.60
2011,11,21,09,16,1.60
2011,11,21,09,17,3.20
2011,11,21,09,18,4.80
2011,11,21,09,19,4.80
2011,11,21,09,20,1.60
2011,11,21,09,22,1.60
2011,11,21,09,23,3.20
2011,11,21,09,24,1.60
2011,11,21,09,28,1.60
2011,11,21,09,34,1.60
2011,11,21,09,39,1.60
2011,11,21,09,42,3.20
2011,11,21,09,43,1.60
2011,11,21,09,44,1.60
2011,11,21,09,45,1.60
2011,11,21,09,46,3.20
2011,11,21,09,47,1.60
2011,11,21,09,48,1.60
2011,11,21,09,49,3.20
2011,11,21,09,50,6.40
2011,11,21,09,51,3.20
2011,11,21,09,52,3.20
2011,11,21,09,53,1.60
2011,11,21,09,54,1.60
2011,11,21,09,55,3.20
2011,11,21,09,56,1.60
2011,11,21,10,00,1.60
2011,11,21,10,01,4.80
2011,11,21,10,02,3.20
2011,11,21,10,03,4.80
2011,11,21,10,04,4.80
2011,11,21,10,05,1.60
2011,11,21,10,06,1.60
2011,11,21,10,07,3.20
2011,11,21,10,08,3.20
2011,11,21,10,09,8.10
2011,11,21,10,10,4.80
2011,11,21,10,11,1.60
2011,11,21,10,12,3.20
2011,11,21,10,13,3.20
2011,11,21,10,14,1.60
2011,11,21,10,15,1.60
2011,11,21,10,16,3.20
2011,11,21,10,17,3.20
2011,11,21,10,18,6.40
2011,11,21,10,19,1.60
2011,11,21,10,20,3.20
2011,11,21,10,21,4.80
2011,11,21,10,22,3.20
2011,11,21,10,23,3.20
2011,11,21,10,24,1.60
2011,11,21,10,25,3.20
2011,11,21,10,26,4.80
2011,11,21,10,27,3.20
2011,11,21,10,28,4.80
2011,11,21,10,29,6.40
2011,11,21,10,30,3.20
2011,11,21,10,31,1.60
2011,11,21,10,33,4.80
2011,11,21,10,34,4.80
2011,11,21,10,35,3.20
2011,11,21,10,36,4.80
2011,11,21,10,37,1.60
2011,11,21,10,38,3.20
2011,11,21,10,41,1.60
2011,11,21,10,42,3.20
2011,11,21,10,43,6.40
2011,11,21,10,44,4.80
2011,11,21,10,45,6.40
2011,11,21,10,46,6.40
2011,11,21,10,47,1.60
2011,11,21,10,48,6.40
2011,11,21,10,49,8.10
2011,11,21,10,50,4.80
2011,11,21,10,51,3.20
2011,11,21,10,52,3.20
2011,11,21,10,53,4.80
2011,11,21,10,54,3.20
2011,11,21,10,55,1.60
2011,11,21,10,56,1.60
2011,11,21,10,57,4.80
2011,11,21,10,58,3.20
2011,11,21,10,59,6.40
2011,11,21,11,00,1.60
2011,11,21,11,01,6.40
2011,11,21,11,02,4.80
2011,11,21,11,03,4.80
2011,11,21,11,04,6.40
2011,11,21,11,05,4.80
2011,11,21,11,06,1.60
2011,11,21,11,07,3.20
2011,11,21,11,08,1.60
2011,11,21,11,10,3.20
2011,11,21,11,11,3.20
2011,11,21,11,13,1.60
2011,11,21,11,14,4.80
2011,11,21,11,15,6.40
2011,11,21,11,16,6.40
2011,11,21,11,17,6.40
2011,11,21,11,18,4.80
2011,11,21,11,19,8.10
2011,11,21,11,20,1.60
2011,11,21,11,21,4.80
2011,11,21,11,22,3.20
2011,11,21,11,23,3.20
2011,11,21,11,24,6.40
2011,11,21,11,25,8.10
2011,11,21,11,26,3.20
2011,11,21,11,27,3.20
2011,11,21,11,28,3.20
2011,11,21,11,29,3.20
2011,11,21,11,30,3.20
2011,11,21,11,31,3.20
2011,11,21,11,32,6.40
2011,11,21,11,33,3.20
2011,11,21,11,34,3.20
2011,11,21,11,35,8.10
2011,11,21,11,36,8.10
2011,11,21,11,37,11.30
2011,11,21,11,38,3.20
2011,11,21,11,39,4.80
2011,11,21,11,40,4.80
2011,11,21,11,41,4.80
2011,11,21,11,42,3.20
2011,11,21,11,43,3.20
2011,11,21,11,44,4.80
2011,11,21,11,45,4.80
2011,11,21,11,46,4.80
2011,11,21,11,47,8.10
2011,11,21,11,48,8.10
2011,11,21,11,49,4.80
2011,11,21,11,50,3.20
2011,11,21,11,51,1.60
2011,11,21,11,52,6.40
2011,11,21,11,53,4.80
2011,11,21,11,54,4.80
2011,11,21,11,55,6.40
2011,11,21,11,56,4.80
2011,11,21,11,57,4.80
2011,11,21,11,58,11.30
2011,11,21,11,59,6.40
2011,11,21,12,00,3.20
2011,11,21,12,01,3.20
2011,11,21,12,02,8.10
2011,11,21,12,03,4.80
2011,11,21,12,04,1.60
2011,11,21,12,05,1.60
2011,11,21,12,06,4.80
2011,11,21,12,07,8.10
2011,11,21,12,08,8.10
2011,11,21,12,09,1.60
2011,11,21,12,10,4.80
2011,11,21,12,11,4.80
2011,11,21,12,12,6.40
2011,11,21,12,13,4.80
2011,11,21,12,14,3.20
2011,11,21,12,15,3.20
2011,11,21,12,16,12.90
2011,11,21,12,17,8.10
2011,11,21,12,18,6.40
2011,11,21,12,19,9.60
2011,11,21,12,20,8.10
2011,11,21,12,21,9.60
2011,11,21,12,22,8.10
2011,11,21,12,23,6.40
2011,11,21,12,24,1.60
2011,11,21,12,25,6.40
2011,11,21,12,26,4.80
2011,11,21,12,27,6.40
2011,11,21,12,28,4.80
2011,11,21,12,29,4.80
2011,11,21,12,30,3.20
2011,11,21,12,31,4.80
2011,11,21,12,32,3.20
2011,11,21,12,33,8.10
2011,11,21,12,34,4.80
2011,11,21,12,35,4.80
2011,11,21,12,36,4.80
2011,11,21,12,37,3.20
2011,11,21,12,38,1.60
2011,11,21,12,39,6.40
2011,11,21,12,40,3.20
2011,11,21,12,41,4.80
2011,11,21,12,42,8.10
2011,11,21,12,43,6.40
2011,11,21,12,44,3.20
2011,11,21,12,45,1.60
2011,11,21,12,46,1.60
2011,11,21,12,47,6.40
2011,11,21,12,48,3.20
2011,11,21,12,49,3.20
2011,11,21,12,50,8.10
2011,11,21,12,51,9.60
2011,11,21,12,52,9.60
2011,11,21,12,53,4.80
2011,11,21,12,54,6.40
2011,11,21,12,55,4.80
2011,11,21,12,56,4.80
2011,11,21,12,57,8.10
2011,11,21,12,58,3.20
2011,11,21,12,59,8.10
2011,11,21,13,00,4.80
2011,11,21,13,01,6.40
2011,11,21,13,02,4.80
2011,11,21,13,03,8.10
2011,11,21,13,04,8.10
2011,11,21,13,05,9.60
2011,11,21,13,06,3.20
2011,11,21,13,07,4.80
2011,11,21,13,08,4.80
2011,11,21,13,09,8.10
2011,11,21,13,10,3.20
2011,11,21,13,11,6.40
2011,11,21,13,12,4.80
2011,11,21,13,13,3.20
2011,11,21,13,14,3.20
2011,11,21,13,15,8.10
2011,11,21,13,16,6.40
2011,11,21,13,17,1.60
2011,11,21,13,18,9.60
2011,11,21,13,19,6.40
2011,11,21,13,20,6.40
2011,11,21,13,21,6.40
2011,11,21,13,22,8.10
2011,11,21,13,23,3.20
2011,11,21,13,24,11.30
2011,11,21,13,25,8.10
2011,11,21,13,26,3.20
2011,11,21,13,27,1.60
2011,11,21,13,28,6.40
2011,11,21,13,29,4.80
2011,11,21,13,30,6.40
2011,11,21,13,31,1.60
2011,11,21,13,32,1.60
2011,11,21,13,33,1.60
2011,11,21,13,35,1.60
2011,11,21,13,37,3.20
2011,11,21,13,40,1.60
2011,11,21,13,41,1.60
2011,11,21,13,42,1.60
2011,11,21,13,43,3.20
2011,11,21,13,44,3.20
2011,11,21,13,45,4.80
2011,11,21,13,46,3.20
2011,11,21,13,47,1.60
2011,11,21,13,48,3.20
2011,11,21,13,49,3.20
2011,11,21,13,50,1.60
2011,11,21,13,51,3.20
2011,11,21,13,52,1.60
2011,11,21,13,53,3.20
2011,11,21,13,54,3.20
2011,11,21,13,55,1.60
2011,11,21,13,56,4.80
2011,11,21,13,57,3.20
2011,11,21,13,58,4.80
2011,11,21,13,59,3.20
2011,11,21,14,00,4.80
2011,11,21,14,01,4.80
2011,11,21,14,02,4.80
2011,11,21,14,03,1.60
2011,11,21,14,04,1.60
2011,11,21,14,06,3.20
2011,11,21,14,07,4.80
2011,11,21,14,08,4.80
2011,11,21,14,09,6.40
2011,11,21,14,10,6.40
2011,11,21,14,11,1.60
2011,11,21,14,12,4.80
2011,11,21,14,14,1.60
2011,11,21,14,15,6.40
2011,11,21,14,16,6.40
2011,11,21,14,17,6.40
2011,11,21,14,18,4.80
2011,11,21,14,19,3.20
2011,11,21,14,20,4.80
2011,11,21,14,21,3.20
2011,11,21,14,22,1.60
2011,11,21,14,25,3.20
2011,11,21,14,27,1.60
2011,11,21,14,29,1.60
2011,11,21,14,30,1.60
2011,11,21,14,31,3.20
2011,11,21,14,33,1.60
2011,11,21,14,36,1.60
2011,11,21,14,37,3.20
2011,11,21,14,40,1.60
2011,11,21,14,41,4.80
2011,11,21,14,42,4.80
2011,11,21,14,43,4.80
2011,11,21,14,44,4.80
2011,11,21,14,45,6.40
2011,11,21,14,46,6.40
2011,11,21,14,47,3.20
2011,11,21,14,48,4.80
2011,11,21,14,49,8.10
2011,11,21,14,50,4.80
2011,11,21,14,51,6.40
2011,11,21,14,52,4.80
2011,11,21,14,53,6.40
2011,11,21,14,54,4.80
2011,11,21,14,55,6.40
2011,11,21,14,56,4.80
2011,11,21,14,57,1.60
2011,11,21,14,58,4.80
2011,11,21,14,59,3.20
2011,11,21,15,00,3.20
2011,11,21,15,01,1.60
2011,11,21,15,02,1.60
2011,11,21,15,03,1.60
2011,11,21,15,04,1.60
2011,11,21,15,05,3.20
2011,11,21,15,06,4.80
2011,11,21,15,07,1.60
2011,11,21,15,08,3.20
2011,11,21,15,09,3.20
2011,11,21,15,10,1.60
2011,11,21,15,11,1.60
2011,11,21,15,13,1.60
2011,11,21,15,15,1.60
2011,11,21,15,16,1.60
2011,11,21,15,17,3.20
2011,11,21,15,18,3.20
2011,11,21,15,19,3.20
2011,11,21,15,20,3.20
2011,11,21,15,21,3.20
2011,11,21,15,22,3.20
2011,11,21,15,23,6.40
2011,11,21,15,24,6.40
2011,11,21,15,25,4.80
2011,11,21,15,26,3.20
2011,11,21,15,27,4.80
2011,11,21,15,28,1.60
2011,11,21,15,29,1.60
2011,11,21,15,30,1.60
2011,11,21,15,31,1.60
2011,11,21,15,32,1.60
2011,11,21,15,33,4.80
2011,11,21,15,34,4.80
2011,11,21,15,35,6.40
2011,11,21,15,36,4.80
2011,11,21,15,37,3.20
2011,11,21,15,38,3.20
2011,11,21,15,39,4.80
2011,11,21,15,40,6.40
2011,11,21,15,41,6.40
2011,11,21,15,42,3.20
2011,11,21,15,43,4.80
2011,11,21,15,44,4.80
2011,11,21,15,45,3.20
2011,11,21,15,46,4.80
2011,11,21,15,47,4.80
2011,11,21,15,48,4.80
2011,11,21,15,49,4.80
2011,11,21,15,50,4.80
2011,11,21,15,51,6.40
2011,11,21,15,52,3.20
2011,11,21,15,53,3.20
2011,11,21,15,54,3.20
2011,11,21,15,55,3.20
2011,11,21,15,56,4.80
2011,11,21,15,57,6.40
2011,11,21,15,58,1.60
2011,11,21,15,59,6.40
2011,11,21,16,00,4.80
2011,11,21,16,01,4.80
2011,11,21,16,02,4.80
2011,11,21,16,03,1.60
2011,11,21,16,04,4.80
2011,11,21,16,05,3.20
2011,11,21,16,08,3.20
2011,11,21,16,09,6.40
2011,11,21,16,10,4.80
2011,11,21,16,14,3.20
2011,11,21,16,15,1.60
2011,11,21,16,18,4.80
2011,11,21,16,19,3.20
2011,11,21,16,20,3.20
2011,11,21,16,21,3.20
2011,11,21,16,22,1.60
2011,11,21,16,23,3.20
2011,11,21,16,24,1.60
2011,11,21,16,26,1.60
2011,11,21,16,27,1.60
2011,11,21,16,28,1.60
2011,11,21,16,30,1.60
2011,11,21,16,31,4.80
2011,11,21,16,32,1.60
2011,11,21,16,33,1.60
2011,11,21,16,34,1.60
2011,11,21,16,36,3.20
2011,11,21,16,37,1.60
2011,11,21,16,38,4.80
2011,11,21,16,39,4.80
2011,11,21,16,40,3.20
2011,11,21,16,41,3.20
2011,11,21,16,44,3.20
2011,11,21,16,45,4.80
2011,11,21,16,46,4.80
2011,11,21,16,47,4.80
2011,11,21,16,48,6.40
2011,11,21,16,49,6.40
2011,11,21,16,50,4.80
2011,11,21,16,51,3.20
2011,11,21,16,52,1.60
2011,11,21,16,54,1.60
2011,11,21,16,55,1.60
2011,11,21,16,56,4.80
2011,11,21,16,57,4.80
2011,11,21,16,58,6.40
2011,11,21,16,59,6.40
2011,11,21,17,00,6.40
2011,11,21,17,01,6.40
2011,11,21,17,02,6.40
2011,11,21,17,03,6.40
2011,11,21,17,04,4.80
2011,11,21,17,05,4.80
2011,11,21,17,06,3.20
2011,11,21,17,07,3.20
2011,11,21,17,08,4.80
2011,11,21,17,09,1.60
2011,11,21,17,10,4.80
2011,11,21,17,11,4.80
2011,11,21,17,12,4.80
2011,11,21,17,13,4.80
2011,11,21,17,14,6.40
2011,11,21,17,15,3.20
2011,11,21,17,16,4.80
2011,11,21,17,17,6.40
2011,11,21,17,18,4.80
2011,11,21,17,19,1.60
2011,11,21,17,20,4.80
2011,11,21,17,21,4.80
2011,11,21,17,22,1.60
2011,11,21,17,24,1.60
2011,11,21,17,25,1.60
2011,11,21,17,26,1.60
2011,11,21,17,28,4.80
2011,11,21,17,29,1.60
2011,11,21,17,31,1.60
2011,11,21,17,32,3.20
2011,11,21,17,33,3.20
2011,11,21,17,34,1.60
2011,11,21,17,38,1.60
2011,11,21,17,39,4.80
2011,11,21,17,40,3.20
2011,11,21,17,41,1.60
2011,11,21,17,45,1.60
2011,11,21,17,46,1.60
2011,11,21,17,47,1.60
2011,11,21,17,48,1.60
2011,11,21,17,59,1.60
2011,11,21,18,13,1.60
2011,11,21,18,19,1.60
2011,11,21,18,21,4.80
2011,11,21,18,22,3.20
2011,11,21,18,23,3.20
2011,11,21,18,24,1.60
2011,11,21,18,25,1.60
2011,11,21,18,26,3.20
2011,11,21,18,27,1.60
2011,11,21,18,29,1.60
2011,11,21,18,30,3.20
2011,11,21,18,35,3.20
2011,11,21,18,36,3.20
2011,11,21,18,37,1.60
2011,11,21,18,40,3.20
2011,11,21,18,41,1.60
2011,11,21,18,43,1.60
2011,11,21,18,44,3.20
2011,11,21,18,45,3.20
2011,11,21,18,46,6.40
2011,11,21,18,47,6.40
2011,11,21,18,48,1.60
2011,11,21,18,49,1.60
2011,11,21,18,50,9.60
2011,11,21,18,51,9.60
2011,11,21,18,52,3.20
2011,11,21,18,53,9.60
2011,11,21,18,54,8.10
2011,11,21,18,55,3.20
2011,11,21,18,56,3.20
2011,11,21,18,57,6.40
2011,11,21,18,58,8.10
2011,11,21,18,59,6.40
2011,11,21,19,00,1.60
2011,11,21,19,01,6.40
2011,11,21,19,02,8.10
2011,11,21,19,03,6.40
2011,11,21,19,04,19.30
2011,11,21,19,05,16.10
2011,11,21,19,06,3.20
2011,11,21,19,07,4.80
2011,11,21,19,08,4.80
2011,11,21,19,09,9.60
2011,11,21,19,10,4.80
2011,11,21,19,11,8.10
2011,11,21,19,12,8.10
2011,11,21,19,13,8.10
2011,11,21,19,14,4.80
2011,11,21,19,15,11.30
2011,11,21,19,16,9.60
2011,11,21,19,17,3.20
2011,11,21,19,18,9.60
2011,11,21,19,19,9.60
2011,11,21,19,20,3.20
2011,11,21,19,21,6.40
2011,11,21,19,22,3.20
2011,11,21,19,24,4.80
2011,11,21,19,25,4.80
2011,11,21,19,26,4.80
2011,11,21,19,27,6.40
2011,11,21,19,28,8.10
2011,11,21,19,29,4.80
2011,11,21,19,30,4.80
2011,11,21,19,31,3.20
2011,11,21,19,32,1.60
2011,11,21,19,33,3.20
2011,11,21,19,34,1.60
2011,11,21,19,35,6.40
2011,11,21,19,36,3.20
2011,11,21,19,37,1.60
2011,11,21,19,41,1.60
2011,11,21,19,43,1.60
2011,11,21,19,44,1.60
2011,11,21,19,45,1.60
2011,11,21,19,46,4.80
2011,11,21,19,47,3.20
2011,11,21,19,49,1.60
2011,11,21,19,53,1.60
2011,11,21,19,54,1.60
2011,11,21,19,55,1.60
2011,11,21,19,56,1.60
2011,11,21,19,57,1.60
2011,11,21,19,59,3.20
2011,11,21,20,00,3.20
2011,11,21,20,01,3.20
2011,11,21,20,02,3.20
2011,11,21,20,03,1.60
2011,11,21,20,04,1.60
2011,11,21,20,05,1.60
2011,11,21,20,06,1.60
2011,11,21,20,16,1.60
2011,11,21,20,17,1.60
2011,11,21,20,26,1.60
2011,11,21,20,27,1.60
2011,11,21,20,28,1.60
2011,11,21,20,30,1.60
2011,11,21,20,33,1.60
2011,11,21,20,36,1.60
2011,11,21,20,37,1.60
2011,11,21,20,38,1.60
2011,11,21,20,39,1.60
2011,11,21,20,44,3.20
2011,11,21,20,45,3.20
2011,11,21,20,48,1.60
2011,11,21,20,51,1.60
2011,11,21,21,04,1.60
2011,11,21,21,05,3.20
2011,11,21,21,07,1.60
2011,11,21,21,18,1.60
2011,11,21,21,31,1.60
2011,11,21,21,47,3.20
2011,11,21,21,48,4.80
2011,11,21,21,49,1.60
2011,11,21,21,50,1.60
2011,11,21,21,56,3.20
2011,11,21,21,57,3.20
2011,11,21,21,58,3.20
2011,11,21,21,59,3.20
2011,11,21,22,02,3.20
2011,11,21,22,03,3.20
2011,11,21,22,04,1.60
2011,11,21,22,05,3.20
2011,11,21,22,06,4.80
2011,11,21,22,07,1.60
2011,11,21,22,08,4.80
2011,11,21,22,09,4.80
2011,11,21,22,10,3.20
2011,11,21,22,11,1.60
2011,11,21,22,12,1.60
2011,11,21,22,13,3.20
2011,11,21,22,14,4.80
2011,11,21,22,15,3.20
2011,11,21,22,16,1.60
2011,11,21,22,18,1.60
2011,11,21,22,19,3.20
2011,11,21,22,25,1.60
2011,11,21,22,30,3.20
2011,11,21,22,31,4.80
2011,11,21,22,32,3.20
2011,11,21,22,35,1.60
2011,11,21,22,36,1.60
2011,11,21,22,37,1.60
2011,11,21,22,38,1.60
2011,11,21,22,41,6.40
2011,11,21,22,42,3.20
2011,11,21,22,45,1.60
2011,11,21,22,52,1.60
2011,11,21,23,37,3.20
2011,11,21,23,38,1.60
